FW8309 Weather Reports


time (UTC)temp
C
wind
direction
speed
KPH
gust
KPH
rain 1hr
cm
rain 24hr
cm
rain mn
cm
humidity
%
barometer
mb
20260506200859 15 212 3.2 3.2 0.00 0.00 0.00 81 1019.2
20260506195354 16 245 4.8 8.0 0.00 0.00 0.00 77 1019.3
20260506193851 16 167 3.2 3.2 0.00 0.00 0.00 78 1019.0
20260506192347 15 276 3.2 3.2 0.00 0.00 0.00 78 1019.0
20260506190843 15 95 1.6 1.6 0.00 0.00 0.00 79 1019.1
20260506185339 15 165 4.8 11.3 0.00 0.00 0.00 78 1018.9
20260506183837 15 102 6.4 11.3 0.00 0.00 0.00 79 1019.2
20260506182332 15 149 6.4 8.0 0.00 0.00 0.00 79 1019.1
20260506180831 15 177 1.6 3.2 0.00 0.00 0.00 80 1019.2
20260506175326 14 97 4.8 8.0 0.00 0.00 0.00 83 1018.9
20260506173824 14 192 3.2 4.8 0.00 0.00 0.00 83 1019.3
20260506172320 13 95 9.7 11.3 0.00 0.00 0.00 87 1019.3
20260506170818 12 146 6.4 9.7 0.00 0.00 0.00 89 1019.7
20260506165316 13 271 4.8 4.8 0.00 0.00 0.00 89 1019.4
20260506163813 12 269 0.0 0.0 0.00 0.00 0.00 92 1019.3
20260506162313 12 284 3.2 3.2 0.00 0.00 0.00 93 1019.3
20260506160811 11 180 3.2 3.2 0.00 0.00 0.00 95 1019.1
20260506155309 11 240 0.0 1.6 0.00 0.00 0.00 97 1019.1
20260506153427 11 353 0.0 1.6 0.00 0.00 0.00 98 1019.5
20260506151925 11 242 0.0 1.6 0.00 0.00 0.00 98 1019.2
20260506150421 11 251 1.6 1.6 0.00 0.00 0.00 99 1019.3
20260506144918 10 254 0.0 1.6 0.00 0.00 0.00 99 1019.2
20260506143415 10 248 0.0 0.0 0.00 0.00 0.00 99 1019.1
20260506141915 10 230 0.0 0.0 0.00 0.00 0.00 99 1019.0
20260506140413 10 255 0.0 0.0 0.00 0.00 0.00 99 1019.0
20260506134909 10 277 1.6 1.6 0.00 0.00 0.00 99 1019.0
20260506133405 11 255 0.0 0.0 0.00 0.00 0.00 99 1019.0
20260506131903 11 255 0.0 0.0 0.00 0.00 0.00 99 1018.6
20260506130403 11 247 0.0 0.0 0.00 0.00 0.00 99 1018.6
20260506124904 11 266 1.6 3.2 0.00 0.00 0.00 98 1018.3
20260506123402 11 248 0.0 0.0 0.00 0.00 0.00 98 1018.3
20260506121900 11 252 1.6 3.2 0.00 0.00 0.00 99 1018.2
20260506120357 11 249 0.0 0.0 0.00 0.00 0.00 99 1018.3
20260506114856 11 244 0.0 0.0 0.00 0.00 0.00 99 1018.0
20260506113354 11 246 0.0 0.0 0.00 0.00 0.00 99 1018.0
20260506111851 11 244 0.0 0.0 0.00 0.00 0.00 99 1017.8
20260506110349 11 249 0.0 0.0 0.00 0.00 0.00 99 1017.8
20260506104846 11 249 0.0 0.0 0.00 0.00 0.00 99 1017.9
20260506103345 11 237 0.0 0.0 0.00 0.00 0.00 99 1017.6
20260506101842 11 245 0.0 0.0 0.00 0.00 0.00 98 1017.3
20260506100340 11 247 0.0 0.0 0.00 0.00 0.00 99 1017.4
20260506094838 11 238 0.0 0.0 0.00 0.00 0.00 99 1017.5
20260506093337 11 238 0.0 0.0 0.00 0.00 0.00 99 1017.5
20260506091835 11 246 0.0 0.0 0.00 0.00 0.00 99 1017.2
20260506090333 11 241 0.0 0.0 0.00 0.00 0.00 99 1017.2
20260506084829 11 250 0.0 0.0 0.00 0.00 0.00 98 1017.2
20260506083326 11 256 0.0 0.0 0.00 0.00 0.00 98 1017.0
20260506081821 11 248 0.0 0.0 0.00 0.00 0.00 98 1017.0
20260506080319 11 268 0.0 0.0 0.00 0.00 0.00 98 1017.1
20260506073315 11 250 0.0 0.0 0.00 0.00 0.00 99 1017.0
20260506071813 11 249 0.0 0.0 0.00 0.00 0.00 99 1016.8
20260506070310 11 250 0.0 0.0 0.00 0.00 0.00 99 1016.7
20260506061801 10 250 0.0 0.0 0.00 0.00 0.00 99 1016.5
20260506060300 10 246 0.0 0.0 0.00 0.00 0.00 99 1016.3
20260506050250 10 247 0.0 0.0 0.00 0.00 0.00 99 1016.0
20260506044746 10 257 0.0 0.0 0.00 0.00 0.00 99 1015.9
20260506043244 11 249 0.0 0.0 0.00 0.00 0.00 98 1015.6
20260506041739 11 252 0.0 0.0 0.00 0.00 0.00 97 1016.0
20260506040236 12 249 0.0 0.0 0.00 0.00 0.00 96 1015.6
20260506034732 12 254 0.0 0.0 0.00 0.00 0.00 94 1015.4
20260506033229 13 250 0.0 0.0 0.00 0.00 0.00 92 1015.2
20260506031725 13 240 0.0 0.0 0.00 0.00 0.00 90 1015.0
20260506030224 13 240 0.0 0.0 0.00 0.00 0.00 89 1014.9
20260506024720 14 260 1.6 1.6 0.00 0.00 0.00 87 1015.0
20260506023216 14 222 0.0 1.6 0.00 0.00 0.00 86 1014.8
20260506021715 15 251 0.0 1.6 0.00 0.00 0.00 85 1014.6
20260506020212 15 245 1.6 1.6 0.00 0.00 0.00 84 1014.5
20260506014709 15 219 0.0 1.6 0.00 0.00 0.00 82 1014.2
20260506013206 16 34 1.6 1.6 0.00 0.00 0.00 79 1014.2
20260506011702 16 249 1.6 1.6 0.00 0.00 0.00 79 1014.1
20260506010159 17 241 1.6 1.6 0.00 0.00 0.00 77 1014.3
20260506004654 17 139 3.2 3.2 0.00 0.00 0.00 77 1014.1
20260506003151 17 115 11.3 17.7 0.00 0.00 0.00 77 1014.1
20260506001650 17 166 3.2 4.8 0.00 0.00 0.00 76 1014.2
20260506000148 17 196 1.6 1.6 0.00 0.00 0.00 75 1014.3
20260505234645 17 185 4.8 4.8 0.00 0.00 0.00 75 1014.4
20260505233142 17 177 1.6 3.2 0.00 0.00 0.00 76 1014.3
20260505231639 17 197 3.2 4.8 0.00 0.00 0.00 75 1014.5
20260505230138 17 346 8.0 11.3 0.00 0.00 0.00 75 1014.5
20260505224633 18 231 3.2 3.2 0.00 0.00 0.00 74 1014.3
20260505223130 18 154 6.4 9.7 0.00 0.00 0.00 74 1014.5
20260505221625 17 228 3.2 9.7 0.00 0.00 0.00 74 1014.6
20260505220123 17 143 4.8 8.0 0.00 0.00 0.00 75 1014.7
20260505214622 17 72 4.8 8.0 0.00 0.00 0.00 74 1014.6
20260505213118 17 194 3.2 3.2 0.00 0.00 0.00 75 1014.8
20260505211615 17 344 3.2 3.2 0.00 0.00 0.00 76 1014.8
20260505210111 17 147 6.4 9.7 0.00 0.00 0.00 75 1014.9
20260505204609 17 109 8.0 11.3 0.00 0.00 0.00 77 1015.2
20260505203106 17 137 6.4 9.7 0.00 0.00 0.00 76 1015.0
20260505201601 17 130 6.4 8.0 0.00 0.00 0.00 75 1015.0